Weather History for Eagle Creek, IN

Change the Weather History Date:

Saturday, February 15, 2014

  Actual Average Record
Temperature  
Mean Temperature 13 °F 32 °F  
Max Temperature 23 °F 40 °F 69 °F (2005)
Min Temperature 2 °F 24 °F 1 °F (2007)
Degree Days  
Heating Degree Days 52 33  
Month to date heating degree days 731 521  
Since 1 July heating degree days 4364 3722  
Cooling Degree Days 0 0  
Month to date cooling degree days 0 0  
Year to date cooling degree days 0 0  
Moisture  
Dew Point 10 °F    
Average Humidity 73    
Maximum Humidity 91    
Minimum Humidity 54    
Precipitation  
Precipitation 0.05 in 0.08 in 0.26 in (2003)
Month to date precipitation 1.82 1.07  
Year to date precipitation 3.70 3.28  
Sea Level Pressure  
Sea Level Pressure 30.05 in    
Wind  
Wind Speed 6 mph (WSW)    
Max Wind Speed 13 mph    
Max Gust Speed 17 mph    
Visibility 7 miles    
Events Snow    
T = Trace of Precipitation, MM = Missing Value Source: NWS Daily Summary

Daily Weather History Graph

Daily Weather History Graph

Search for Another Location

Airport:

Trip Planner

Search our weather history database for the weather conditions in past years. The results will help you decide how hot, cold, wet, or windy it might be!

Date:

Astronomy

Feb. 15, 2014 Rise Set
Actual Time 7:37 AM EST 6:21 PM EST
Civil Twilight 7:10 AM EST 6:49 PM EST
Nautical Twilight 6:38 AM EST 7:20 PM EST
Astronomical Twilight 6:07 AM EST 7:52 PM EST
Moon 7:20 PM EST (2/15) 7:36 AM EST (2/15)
Length of Visible Light 11h 39m
Length of Day
10h 43m
Full, 100% of the Moon is Illuminated
Feb 15
Full
Feb 22
Last Quarter
Mar 1
New
Mar 8
First Quarter
Mar 16
Full

Hourly Weather History & Observations

Time (EST) Temp. Windchill Dew Point Humidity Pressure Visibility Wind Dir Wind Speed Gust Speed Precip Events Conditions
12:25 AM 14.0 °F 5.1 °F 9.0 °F 80% 29.87 in 8.0 mi NW 5.8 mph - N/A   Mostly Cloudy
12:53 AM 16.0 °F 3.6 °F 10.0 °F 77% 29.91 in 7.0 mi NW 10.4 mph - N/A   Overcast
1:53 AM 16.0 °F 3.6 °F 10.9 °F 81% 29.93 in 8.0 mi WNW 10.4 mph - N/A   Overcast
2:50 AM 15.8 °F 6.1 °F 10.4 °F 79% 29.90 in 9.0 mi NW 6.9 mph - N/A   Overcast
2:53 AM 15.1 °F 4.2 °F 10.0 °F 80% 29.94 in 9.0 mi NW 8.1 mph - N/A   Overcast
3:53 AM 14.0 °F 2.9 °F 8.1 °F 77% 29.98 in 9.0 mi NW 8.1 mph - N/A   Overcast
4:53 AM 12.9 °F 0.7 °F 7.0 °F 77% 30.02 in 9.0 mi WNW 9.2 mph - N/A   Overcast
5:53 AM 10.9 °F -1.8 °F 5.0 °F 77% 30.06 in 9.0 mi WNW 9.2 mph - N/A   Overcast
6:53 AM 6.1 °F -5.6 °F 1.9 °F 83% 30.07 in 8.0 mi WNW 6.9 mph - N/A   Clear
7:53 AM 3.0 °F -8.0 °F -0.0 °F 87% 30.10 in 5.0 mi NW 5.8 mph - N/A   Clear
8:53 AM 6.1 °F -0.9 °F 1.0 °F 80% 30.12 in 7.0 mi West 3.5 mph - N/A   Clear
9:53 AM 9.0 °F 2.4 °F 3.0 °F 77% 30.13 in 8.0 mi West 3.5 mph - N/A   Clear
10:53 AM 12.9 °F - 3.9 °F 67% 30.14 in 8.0 mi Calm Calm - N/A   Clear
11:53 AM 17.1 °F 10.0 °F 7.0 °F 65% 30.16 in 9.0 mi West 4.6 mph - N/A   Clear
12:53 PM 19.9 °F 11.1 °F 10.0 °F 65% 30.15 in 10.0 mi SW 6.9 mph - N/A   Clear
1:53 PM 21.0 °F 14.6 °F 10.0 °F 63% 30.13 in 10.0 mi Variable 4.6 mph - N/A   Clear
2:53 PM 21.0 °F 12.4 °F 8.1 °F 57% 30.11 in 10.0 mi West 6.9 mph - N/A   Clear
3:53 PM 21.9 °F 17.2 °F 9.0 °F 58% 30.12 in 10.0 mi Variable 3.5 mph - N/A   Clear
4:53 PM 23.0 °F 15.8 °F 9.0 °F 55% 30.12 in 10.0 mi WSW 5.8 mph - N/A   Clear
5:53 PM 21.9 °F 14.5 °F 9.0 °F 58% 30.10 in 10.0 mi SSW 5.8 mph - N/A   Mostly Cloudy
6:53 PM 21.0 °F 16.2 °F 10.0 °F 63% 30.09 in 10.0 mi South 3.5 mph - N/A   Overcast
7:53 PM 21.0 °F 14.6 °F 10.0 °F 63% 30.09 in 10.0 mi SSW 4.6 mph - N/A   Overcast
8:53 PM 21.0 °F 14.6 °F 10.9 °F 65% 30.07 in 10.0 mi South 4.6 mph - N/A   Overcast
9:50 PM 21.2 °F 12.6 °F 12.2 °F 68% 30.04 in 1.8 mi South 6.9 mph - 0.00 in Snow Light Snow
9:53 PM 19.9 °F 10.1 °F 14.0 °F 78% 30.09 in 1.2 mi SSW 8.1 mph - 0.00 in Snow Light Snow
10:53 PM 19.9 °F 13.4 °F 17.1 °F 89% 30.06 in 1.0 mi SSE 4.6 mph - 0.02 in Snow Light Snow
11:07 PM 19.9 °F 13.4 °F 17.1 °F 89% 30.01 in 0.8 mi SSE 4.6 mph - 0.01 in Snow Light Snow
11:22 PM 19.9 °F 12.1 °F 17.1 °F 89% 30.00 in 1.0 mi South 5.8 mph - 0.02 in Snow Light Snow
11:33 PM 19.9 °F 12.1 °F 17.1 °F 89% 30.00 in 1.2 mi SSE 5.8 mph - 0.02 in Snow Light Snow
11:40 PM 19.9 °F 13.4 °F 17.1 °F 89% 30.00 in 0.8 mi SSE 4.6 mph - 0.02 in Snow Light Snow
11:49 PM 19.4 °F 12.8 °F 17.6 °F 93% 29.99 in 1.0 mi SSE 4.6 mph - 0.03 in Snow Light Snow
11:53 PM 19.9 °F 13.4 °F 18.0 °F 92% 30.03 in 1.2 mi SE 4.6 mph - 0.03 in Snow Light Snow